Location: ???? ?????????
(44.3677°N, 135.2344°E)
Time: 11:05:46
(UTC+00:00)

Meteor 2-15 Rocket - Pass Details

Date: 19 May 2025
Orbit: 938 x 956 km, 82.5° (Epoch: 14 June)

Event Time Altitude Azimuth Distance (km) Brightness Sun altitude
Rises 14:13:55 0° 351° (N) 3,632 8.9 -25.0°
Reaches altitude 10° 14:16:26 10° 352° (N) 2,680 7.9 -25.1°
Maximum altitude 14:22:35 84° 82° (E) 956 4.3 -25.3°
Enters shadow 14:23:43 61° 161° (SSE) 1,061 4.3 -25.3°
